Weather History for London / Heathrow Airport, United Kingdom

Change the Weather History Date:

Monday, November 4, 2013

  Actual Average Record
Temperature  
Mean Temperature 46 °F -  
Max Temperature 51 °F 49 °F - ()
Min Temperature 39 °F 39 °F - ()
Degree Days  
Heating Degree Days 19    
Moisture  
Dew Point 39 °F    
Average Humidity 79    
Maximum Humidity 100    
Minimum Humidity 51    
Precipitation  
Precipitation 0.01 in - - ()
Sea Level Pressure  
Sea Level Pressure 29.30 in    
Wind  
Wind Speed 9 mph ()    
Max Wind Speed 13 mph    
Max Gust Speed -    
Visibility 6.5 miles    
Events Rain    
T = Trace of Precipitation, MM = Missing Value Source: Averaged Metar Reports

Daily Weather History Graph

Daily Weather History Graph

Search for Another Location

Airport:

Trip Planner

Search our weather history database for the weather conditions in past years. The results will help you decide how hot, cold, wet, or windy it might be!

Date:

Astronomy

Nov. 04, 2013 Rise Set
Actual Time 7:00 AM GMT 4:29 PM GMT
Civil Twilight 6:25 AM GMT 5:04 PM GMT
Nautical Twilight 5:45 AM GMT 5:44 PM GMT
Astronomical Twilight 5:06 AM GMT 6:23 PM GMT
Moon 8:01 AM GMT (11/4) 5:13 PM GMT (11/4)
Length of Visible Light 10h 39m
Length of Day
9h 28m
New Moon, 1% of the Moon is Illuminated
Nov 4
New Moon
Nov 10
First Quarter
Nov 17
Full
Nov 25
Last Quarter
Dec 3
New

Hourly Weather History & Observations

Time (GMT) Temp. Windchill Dew Point Humidity Pressure Visibility Wind Dir Wind Speed Gust Speed Precip Events Conditions
12:00 AM 47 °F - 46 °F 92% 29.06 in 4 mi NE 8.1 mph - - Rain Light Drizzle
12:20 AM 48.2 °F - 46.4 °F 93% 29.03 in - NE 6.9 mph - N/A Rain Light Rain
12:50 AM 46.4 °F 42.9 °F 46.4 °F 100% 29.03 in - NNE 6.9 mph - N/A Rain Light Rain
1:20 AM 46.4 °F 42.9 °F 44.6 °F 93% 29.03 in 1.9 mi NNE 6.9 mph - N/A   Drizzle
1:50 AM 46.4 °F 41.5 °F 44.6 °F 93% 29.03 in - NNE 10.4 mph - N/A   Heavy Drizzle
2:20 AM 44.6 °F 39.7 °F 42.8 °F 93% 29.03 in 2.2 mi NNE 9.2 mph - N/A   Heavy Drizzle
2:50 AM 44.6 °F 39.2 °F 42.8 °F 93% 29.00 in 1.7 mi NNE 10.4 mph - N/A Rain Light Rain
3:00 AM 44 °F - 42 °F 91% 29.02 in 2 mi NNE 9.2 mph - - Rain Light Rain
3:20 AM 44.6 °F 39.2 °F 42.8 °F 93% 29.03 in - NNE 10.4 mph - N/A   Heavy Drizzle
3:50 AM 42.8 °F 36.2 °F 41.0 °F 93% 29.03 in - NNE 12.7 mph - N/A   Drizzle
4:20 AM 42.8 °F 36.2 °F 41.0 °F 93% 29.06 in 3.7 mi NNE 12.7 mph - N/A   Mostly Cloudy
4:50 AM 42.8 °F 36.6 °F 41.0 °F 93% 29.06 in 5.6 mi NNE 11.5 mph - N/A Rain Light Rain
5:20 AM 42.8 °F 37.0 °F 41.0 °F 93% 29.09 in 6.2 mi North 10.4 mph - N/A Rain Light Rain
5:50 AM 42.8 °F 37.0 °F 41.0 °F 93% 29.12 in 6.2 mi North 10.4 mph - N/A Rain Light Rain
6:00 AM 43 °F - 40 °F 86% 29.11 in 19 mi North 11.5 mph - - Rain Rain
6:20 AM 42.8 °F 37.0 °F 41.0 °F 93% 29.12 in 6.2 mi North 10.4 mph - N/A Rain Light Rain
6:50 AM 44.6 °F 40.2 °F 41.0 °F 87% 29.15 in 6.2 mi NNW 8.1 mph - N/A Rain Light Rain
7:20 AM 44.6 °F 39.7 °F 41.0 °F 87% 29.18 in 6.2 mi NNW 9.2 mph - N/A   Mostly Cloudy
7:50 AM 44.6 °F 39.7 °F 41.0 °F 87% 29.21 in 6.2 mi NNW 9.2 mph - N/A   Partly Cloudy
8:20 AM 42.8 °F 38.0 °F 39.2 °F 87% 29.24 in 6.2 mi NNW 8.1 mph - N/A   Partly Cloudy
8:50 AM 44.6 °F 40.2 °F 39.2 °F 81% 29.24 in - NNW 8.1 mph - N/A   Clear
9:00 AM 44 °F - 38 °F 71% 29.26 in 16 mi NNW 10.4 mph - -  
9:20 AM 44.6 °F 39.2 °F 37.4 °F 76% 29.27 in 6.2 mi NNW 10.4 mph - N/A   Partly Cloudy
9:50 AM 46.4 °F 41.9 °F 37.4 °F 71% 29.30 in 6.2 mi NNW 9.2 mph - N/A   Partly Cloudy
10:20 AM 46.4 °F 42.4 °F 37.4 °F 71% 29.33 in 6.2 mi NW 8.1 mph - N/A   Partly Cloudy
10:50 AM 48.2 °F - 37.4 °F 66% 29.33 in 6.2 mi NW 10.4 mph - N/A   Partly Cloudy
11:20 AM 48.2 °F - 37.4 °F 66% 29.33 in 6.2 mi NW 9.2 mph - N/A   Partly Cloudy
11:50 AM 50.0 °F - 35.6 °F 58% 29.36 in 6.2 mi WNW 11.5 mph - N/A   Partly Cloudy
12:00 PM 48 °F - 36 °F 52% 29.35 in 25 mi WNW 11.5 mph - -  
12:20 PM 50.0 °F - 37.4 °F 62% 29.36 in 6.2 mi WNW 11.5 mph - N/A   Partly Cloudy
12:50 PM 50.0 °F - 37.4 °F 62% 29.36 in 6.2 mi WNW 11.5 mph - N/A   Partly Cloudy
1:20 PM 50.0 °F - 39.2 °F 66% 29.36 in 6.2 mi WNW 12.7 mph - N/A   Partly Cloudy
1:50 PM 51.8 °F - 39.2 °F 62% 29.39 in 6.2 mi WNW 9.2 mph - N/A   Scattered Clouds
2:20 PM 50.0 °F - 39.2 °F 66% 29.39 in 6.2 mi WNW 12.7 mph - N/A   Partly Cloudy
2:50 PM 51.8 °F - 39.2 °F 62% 29.39 in 6.2 mi WNW 12.7 mph - N/A   Scattered Clouds
3:00 PM 50 °F - 37 °F 51% 29.41 in 28 mi WNW 12.7 mph - -   Scattered Clouds
3:20 PM 50.0 °F - 39.2 °F 66% 29.42 in 6.2 mi WNW 10.4 mph - N/A   Partly Cloudy
3:50 PM 50.0 °F - 37.4 °F 62% 29.42 in 6.2 mi WNW 10.4 mph - N/A   Partly Cloudy
4:20 PM 48.2 °F - 39.2 °F 71% 29.42 in - WNW 10.4 mph - N/A   Clear
4:50 PM 46.4 °F 42.4 °F 37.4 °F 71% 29.44 in - West 8.1 mph - N/A   Clear
5:20 PM 46.4 °F 43.5 °F 37.4 °F 71% 29.44 in - WNW 5.8 mph - N/A   Clear
5:50 PM 46.4 °F 41.9 °F 37.4 °F 71% 29.47 in - West 9.2 mph - N/A   Clear
6:00 PM 46 °F - 37 °F 63% 29.47 in 25 mi West 8.1 mph - -  
6:20 PM 46.4 °F 42.4 °F 37.4 °F 71% 29.47 in - West 8.1 mph - N/A   Clear
6:50 PM 46.4 °F 41.1 °F 39.2 °F 76% 29.47 in - West 11.5 mph - N/A   Clear
7:20 PM 44.6 °F 39.7 °F 37.4 °F 76% 29.50 in - West 9.2 mph - N/A   Clear
7:50 PM 42.8 °F 38.0 °F 37.4 °F 81% 29.50 in - West 8.1 mph - N/A   Clear
8:20 PM 41.0 °F 34.7 °F 37.4 °F 87% 29.50 in - West 10.4 mph - N/A   Clear
8:50 PM 42.8 °F 38.0 °F 37.4 °F 81% 29.50 in - WSW 8.1 mph - N/A   Clear
9:00 PM 43 °F - 38 °F 74% 29.51 in 16 mi WSW 5.8 mph - -  
9:20 PM 41.0 °F 35.8 °F 37.4 °F 87% 29.50 in - SW 8.1 mph - N/A   Clear
9:50 PM 41.0 °F 35.8 °F 37.4 °F 87% 29.50 in - SW 8.1 mph - N/A   Clear
10:20 PM 41.0 °F 36.4 °F 37.4 °F 87% 29.50 in - SW 6.9 mph - N/A   Clear
10:50 PM 41.0 °F 36.4 °F 37.4 °F 87% 29.50 in - SW 6.9 mph - N/A   Clear
11:20 PM 41.0 °F 36.4 °F 37.4 °F 87% 29.50 in - SW 6.9 mph - N/A   Clear
11:50 PM 39.2 °F 35.9 °F 37.4 °F 93% 29.47 in - SW 4.6 mph - N/A   Clear